Погода в Сланцах

Россия / Санкт-Петербург и Ленинградская область     59°07′04″N   28°05′17″E
темп.,
°C
ветер,
м/с
пор.,
м/с
влажн.,
%
обл.,
%
осадки,
мм/ч
давл.,
гПа
погр.,
м
5 августа, чт
чт500:00+10в22755 0.0 101715
03:00+9юв11835 0.0 101712
06:00+10в11795 0.0 101711
09:00+16в11555 0.0 1017361
12:00+21юв113913 0.0 10162084
15:00+19зсз2249100 0.0 1016717
18:00+17ссв3758100 0.0 1016501
21:00+15св2768100 0.0 1016222
6 августа, пт
пт600:00+12всв237951 0.0 101664
03:00+11в24898 0.0 101669
06:00+10св24945 0.0 101675
09:00+16всв37625 0.0 1015691
12:00+20в5843100 0.0 10142250
15:00+20всв484597 0.0 10131889
18:00+20всв5949100 0.0 10121725
21:00+15всв5116517 0.0 10121104
7 августа, сб
сб700:00+13всв51273100 0.0 1011787
03:00+13всв51179100 0.0 1010751
06:00+12всв51494100 0.4 1008617
09:00+13всв51398100 2.9 1007632
12:00+14в51298100 1.5 1007650
15:00+15в41198100 2.0 1007596
18:00+17в3897100 0.0 1006385
21:00+16ююв129799 0.6 100781
8 августа, вс
вс800:00+14ююв249591 0.1 100792
03:00+12юв22978 0.1 100827
06:00+13ююв239790 0.0 100886
09:00+16ю128978 0.1 1009290
12:00+20ююз216440 0.3 10091080
15:00+21юз325938 0.6 10111279
18:00+22зюз225370 0.1 10111216
21:00+16ююз1183100 0.1 101212
9 августа, пн
пн900:00+15юв2295100 0.0 101332
03:00+14юв23977 0.0 101353
06:00+15вюв259349 0.0 1013112
09:00+20юв3569100 0.0 1013367
12:00+23юв3557100 0.0 1012957
15:00+20ююв138991 1.3 1013131
18:00+19ююз1293100 3.5 101145
21:00+17зсз2798100 5.2 1011198